Rbgn^[z[y[W
メイン
   新天体発見情報
     Comet P/2019 Y3 = 2025 A5 (Catalina)
投稿するにはまず登録を

スレッド表示 | 新しいものから 前のトピック | 次のトピック | 下へ
投稿者 スレッド
佐藤裕久
投稿日時: 2025-2-20 18:15
モデレータ
登録日: 2005-6-12
居住地: 日本
投稿: 2608
オンライン
Comet P/2019 Y3 = 2025 A5 (Catalina)

R. Weryk (西オンタリオ大学,物理および天文学科)の通報によると、1月7日、Haleakalaにある
Pan-STARRS1 1.8-m Ritchey-Chretien反射望遠鏡で得た画像から彗星を発見した。
小惑星センターのPCCP webpageに投稿した後、MPCでP/2019 Y3 (CBET 4711参照)の観測と同定
された。
Werykは、1".6-1".7のシーイングで得た、3枚45-秒のw-バンドサーベイ画像が、集光した2".0 
(半値全幅:FWHM)の頭部が見え、p.a. 60°に5"ほどのまっすぐな尾を見つけた。
その後、次々にPCCP A11hRte、PCCP A11hVVH、PCCP C44DR81が投稿されたが、すべてP/2019 Y3
として処理された。しかし、検出であるとは発表されなかった。
MPCの発表が遅れたので、M. Jaegerは、1月29.8日UT、E. Prosperiと彼は、オーストリア
Martinsbergにある0.35-m f/4.2 反射望遠鏡で得たCMOS画像から、独立してP/2019 Y3を検出し
たことを通報した。30枚50-秒露出では、全光度18.3等で12"のコマが見え、p.a. 276°に20"の
尾があった。
佐藤英貴氏(東京都文京区)は、1月29.5日、CCD露出, 0.51-m f/6.8 アストログラフ, Siding 
Spring, NSW, オーストラリア, 遠隔操作: 中程度の集光した10"のコマが見えた。5".4の円形
範囲で測定した光度は18.4等と観測した。
NK 5032 (= ICQ's 2025 CometHandbook)の中野主一氏の予報に対し、Delta(T)は、+1.37 daysで
あった。
MPEC 2020-C98のDavid J. Bellの予報の予報に対する修正値は、Delta(T) = +1.26 daysであった。
彗星年表2024の佐藤裕久の軌道に対する修正値は、Delta(T) = +1.42 daysであった。

検出位置は次のとおり(PCCP P125u6N)、

     2025 UT             R.A. (2000) Decl.       Mag.
     Jan.  7.21881    2 13 54.95   -29 25 34.9   19.5
           7.23943    2 13 54.91   -29 25 04.7   19.6
           7.24975    2 13 54.91   -29 24 49.3   19.4

MPCの連結軌道要素、位置推算表は次のとおり、

Orbital elements:
    P/2019 Y3 (Catalina)                                                        
Epoch 2025 May 5.0 TT = JDT 2460800.5                                           
T 2025 Mar. 4.39254 TT                                  Pike                    
q   0.9310447            (2000.0)            P               Q                  
n   0.18802944     Peri.    2.55546     -0.78391910     -0.55848746             
a   3.0175338      Node   139.30916     +0.56199839     -0.82397035             
e   0.6914551      Incl.   24.58247     +0.26387241     +0.09573198             
P   5.24                                                                        
From 210 observations 2019 Nov. 1-2025 Feb. 5, mean residual 0".8.              
                                                                                
Ephemeris:
Date    TT    R. A. (2000) Decl.     Delta      r    Elong.  Phase   m1
2025 01 12    02 14 47.1 -27 20 50   0.6870  1.1869    88.7    55.9  18.4
...
2025 01 27    02 24 10.1 -19 01 56   0.6011  1.0711    81.1    65.3  17.7
...
2025 02 04    02 32 50.0 -13 11 52   0.5490  1.0198    77.6    70.7  17.3
...
2025 02 10    02 40 46.8 -07 57 57   0.5082  0.9876    75.2    75.0  17.0
2025 02 11    02 42 13.0 -07 00 33   0.5014  0.9829    74.8    75.7  16.9
2025 02 12    02 43 41.0 -06 01 33   0.4945  0.9783    74.4    76.4  16.9
...
2025 02 18    02 53 08.9 +00 29 01   0.4542  0.9550    72.4    80.6  16.6
...
2025 02 26    03 07 42.1 +11 02 41   0.4051  0.9358    70.4    85.5  16.2
...
2025 03 13    03 45 02.6 +36 56 45   0.3469  0.9397    71.0    88.6  15.9

(MPEC 2025-C161、CBET 5504、oaa-comet 7552)

スレッド表示 | 新しいものから 前のトピック | 次のトピック | トップ

投稿するにはまず登録を
 
© 1999 Tsutomu Seki.